Location: Stigler
(35.2540°N, 95.1230°W)
Time: 06:49:45
(UTC-05:00)

Daily predictions for brighter satellites

Satellite Brightness Start Highest point End
(mag) Time Altitude Azimuth Time Altitude Azimuth Time Altitude Azimuth
Cosmos 1725 Rocket 4.1 20:43:05 10° N 20:49:24 89° E 20:55:39 10° S
Cosmos 1242 Rocket 3.0 20:46:14 10° SSW 20:49:56 71° W 20:53:40 10° N
H-2A R/B 3.2 20:46:41 10° SSE 20:50:27 46° ENE 20:54:15 10° N
Cosmos 2098 Rocket 3.0 20:48:24 10° N 20:51:38 46° E 20:55:34 10° SSE
Lacrosse 5 3.9 20:47:37 10° WSW 20:52:11 33° NW 20:56:45 10° NNE
Cosmos 1844 3.8 20:47:27 10° NNW 20:53:14 83° ENE 20:59:02 10° SSE
Cosmos 1844 Rocket 3.0 20:48:44 10° NNW 20:54:22 71° WSW 20:59:57 10° SSE
ATLAS CENTAUR R/B 1.8 20:49:50 10° SSW 20:54:43 85° ESE 20:59:47 10° NNE
Cosmos 1980 4.0 20:49:40 10° SSW 20:55:20 75° WNW 21:01:02 10° NNE
Cosmos 158 Rocket 3.9 20:50:38 10° S 20:55:34 63° ESE 21:00:40 10° NNE
USA 186 1.7 20:52:54 10° SSE 20:55:51 55° ENE 20:58:39 10° N
SeaSat 1 4.1 20:54:14 10° E 20:57:42 20° NE 21:01:10 10° N
Hubble Space Telescope 2.8 20:59:05 10° WSW 21:01:47 17° SSW 21:04:30 10° SSE
Cosmos 2251 Rocket 3.6 20:56:55 10° S 21:02:06 59° ESE 21:07:20 10° NNE
Cosmos 1025 Rocket 3.1 20:59:36 10° S 21:03:56 63° E 21:08:17 10° NNE
Cosmos 1892 Rocket 4.0 20:59:50 10° SSE 21:03:59 41° E 21:08:11 10° NNE
RESURS DK-1 4.0 21:00:14 10° NW 21:04:00 34° WSW 21:07:44 10° S
FENGYUN 3A 3.7 20:58:41 10° SSE 21:04:01 75° ENE 21:09:23 10° N
BREEZE-M DEB (TANK) 4.2 21:09:23 10° NNW 21:11:18 16° NNE 21:12:48 10° ENE
Atlas Centaur 2 3.7 21:05:14 10° SSW 21:11:44 32° SSE 21:18:57 10° E
OTV 4 1.2 21:10:30 10° W 21:13:19 40° SSW 21:15:32 15° SE
ALOS 2.4 21:08:55 10° S 21:13:35 81° WSW 21:18:16 10° NNW
Meteor 2-17 Rocket 4.5 21:10:12 10° N 21:16:19 68° E 21:22:25 10° SSE
COSMOS 2455 4.3 21:13:20 11° SE 21:16:23 16° ESE 21:19:47 10° ENE
Cosmos 2237 Rocket 3.2 21:12:47 10° SW 21:18:14 51° WNW 21:23:44 10° N
Envisat 3.9 21:16:48 13° SE 21:20:41 31° ENE 21:25:08 10° N
ERS-1 Rocket 3.0 21:17:15 10° SSE 21:22:13 66° ENE 21:27:11 10° N
Cosmos 1939 Rocket 3.7 21:19:32 14° SE 21:22:40 36° ENE 21:26:29 10° N
Cosmos 1110 Rocket 4.3 21:19:16 10° N 21:24:27 53° ENE 21:28:42 15° SE
Cosmos 2278 Rocket 2.4 21:23:11 10° NNW 21:28:50 74° WSW 21:34:28 10° SSE
SL-24 R/B - RUBIN 2 4.5 21:24:51 10° SW 21:30:03 70° WNW 21:36:02 10° NNE
GEOS 3 Rocket 4.3 21:27:29 10° SSE 21:32:36 52° WSW 21:37:43 10° NW
Cosmos 2233 Rocket 4.4 21:26:46 10° NNW 21:32:57 67° W 21:39:04 10° S
Cosmos 1726 Rocket 3.5 21:28:35 10° N 21:33:03 77° E 21:37:06 12° S
USA 234 4.2 21:27:51 11° E 21:33:37 39° NE 21:39:35 10° NNW
Lacrosse 5 rocket 3.0 21:34:34 10° WSW 21:38:06 35° NW 21:41:49 10° NNE
Cosmos 1464 Rocket 4.0 21:34:03 10° N 21:40:08 62° E 21:45:12 15° SSE
Cosmos 2058 Rocket 3.0 21:37:09 10° N 21:41:31 72° E 21:44:44 18° SSE
SL-16 R/B 2.5 21:38:50 10° SSW 21:44:28 73° WNW 21:50:08 10° NNE
OAO 3 Copernicus 4.2 21:40:04 10° W 21:45:08 88° S 21:48:52 18° E
Cosmos 1072 Rocket 4.5 21:39:54 10° N 21:46:11 78° E 21:51:48 14° S
Abrixas rocket 4.3 21:44:04 10° NNW 21:46:49 22° NNE 21:48:52 14° ENE
Aureole 2 Rocket 2.6 21:43:02 10° S 21:47:07 66° ESE 21:50:52 10° NNE
Cosmos 1666 3.0 21:43:52 10° N 21:47:39 47° E 21:49:18 28° SE
Cosmos 1602 Rocket 3.9 21:45:02 20° SSE 21:47:45 45° E 21:52:02 10° NNE
Okean 2 3.4 21:43:51 10° S 21:48:01 83° W 21:52:14 10° N
deb Chang Zheng 4 4.3 21:44:48 10° N 21:49:07 55° WNW 21:53:22 10° SSW
ARGOS 4.5 21:48:12 18° E 21:50:29 24° ENE 21:54:44 10° NNE
H-2A R/B 4.2 21:51:46 10° ENE 21:51:57 10° ENE 21:52:08 10° ENE
Meteor 1-23 Rocket 4.4 21:47:53 10° SSW 21:53:29 75° W 21:59:11 10° N
Cosmos 1743 3.8 21:53:10 10° NNW 21:56:49 42° W 22:00:13 11° SSW
Cosmos 2034 Rocket 4.1 21:51:04 10° N 21:57:24 64° E 22:01:30 23° SSE
Cosmos 494 Rocket 4.4 21:52:55 10° SSW 21:57:58 62° WNW 22:03:02 10° N
UNK 4.2 21:53:57 10° NNE 21:59:20 66° ESE 22:04:38 12° S
SPOT 1/Viking Rocket 4.3 21:57:45 25° ESE 21:59:49 35° ENE 22:04:29 10° N
Cosmos 1812 Rocket 4.4 21:57:21 10° NNE 22:01:18 32° ENE 22:02:13 30° ESE
Cosmos 1461 4.2 21:58:47 10° N 22:02:27 27° NE 22:03:39 23° E
PSLV R/B 3.2 22:03:18 10° WSW 22:06:50 70° SSE 22:07:53 41° E
CZ-2C R/B 3.6 22:06:33 10° WSW 22:07:30 12° W 22:08:27 10° WNW
H-2A R/B 3.3 22:08:27 14° SSW 22:11:41 37° W 22:15:41 10° NNW
MetOp-B 4.1 22:10:01 31° SSE 22:12:33 68° ENE 22:17:53 10° N
Cosmos 1603 3.6 22:07:32 10° SSW 22:13:08 73° ESE 22:18:44 10° NNE
DEBRIS 2.5 22:10:48 10° NW 22:14:51 49° NNE 22:15:01 48° NE
CZ-4 R/B 4.1 22:12:13 10° NNE 22:17:05 51° E 22:18:29 39° SSE
Geosat 4.1 22:13:23 10° NE 22:18:16 51° ESE 22:19:56 36° SSE
Milstar 3 Cent rocket 3.2 22:13:21 10° W 22:18:48 27° SSW 22:19:50 25° S
SPOT 5 2.8 22:17:32 32° S 22:19:33 72° WSW 22:23:55 10° NNW
Cosmos 1626 Rocket 3.8 22:18:55 22° SSW 22:21:42 71° W 22:26:08 10° N
CZ-4 SHROUD 4.2 22:22:15 37° SW 22:22:51 42° W 22:25:53 10° NNW
Cosmos 1302 Rocket 4.1 22:24:38 10° NNW 22:29:52 73° WSW 22:31:50 39° S
SeaSat 1 3.0 22:32:58 33° SSW 22:34:51 51° WSW 22:39:40 10° NW
APEX 3.9 22:32:19 10° NNW 22:36:31 68° WSW 22:37:52 46° S
Cosmos 1943 3.4 22:39:28 47° ESE 22:39:48 48° ESE 22:45:14 10° NNE
DELTA 2 DEB (DPAF) 4.5 22:40:32 49° E 22:40:39 49° ENE 22:45:00 10° N
CZ-4B R/B 3.9 22:35:43 10° N 22:40:42 61° WNW 22:44:18 19° SSW
Meteor 2-12 Rocket 4.3 22:34:43 10° N 22:40:50 77° E 22:42:43 46° SSE
Cosmos 2346 Rocket 4.4 22:41:46 45° SSE 22:43:34 65° E 22:49:40 10° NNE
YAOGAN 6 3.0 22:47:30 58° W 22:47:30 58° W 22:51:07 10° NNW
Terra 2.6 22:52:00 36° ENE 22:52:00 36° ENE 22:56:12 10° N
CZ-4C R/B 3.6 22:53:47 68° NE 22:53:47 68° NE 22:57:43 10° N
Cosmos 1943 Rocket 4.1 22:56:47 10° NNE 23:00:02 16° NE 23:01:00 15° ENE
Atlas Centaur 2 3.1 22:53:06 10° WSW 23:01:01 56° SSE 23:03:19 44° ESE
SL-08 RB Rocket 3.6 23:01:19 83° WSW 23:01:21 83° WSW 23:05:55 10° NNW
COSMOS 2455 3.1 22:56:15 13° SW 23:01:38 67° WNW 23:07:39 10° NNE
Cosmos 407 Rocket 3.9 23:05:15 49° ENE 23:05:15 49° ENE 23:09:33 10° NNE
ATLAS 3B R/B 2.8 23:05:15 41° S 23:08:07 69° ESE 23:15:39 10° NE
USA 81 4.0 23:02:55 10° N 23:08:13 79° W 23:08:46 70° SSW
Cosmos 1758 Rocket 4.2 23:13:15 50° NNE 23:13:15 50° NNE 23:16:33 10° N
USA 234 3.4 23:15:11 51° S 23:16:22 58° SW 23:22:51 10° NW
CARTOSAT-1 4.1 23:17:46 53° N 23:17:46 53° N 23:21:10 10° N
Lacrosse 4 Rocket 3.4 23:26:58 21° NNE 23:26:58 21° NNE 23:28:23 10° NNE
Cosmos 2369 Rocket 2.2 23:22:30 10° NNW 23:28:01 70° NE 23:28:01 70° NE
ARGOS 4.1 23:29:43 37° WSW 23:30:27 38° W 23:35:30 10° NNW
H-2A R/B 2.1 23:31:07 70° NW 23:31:07 70° NW 23:35:37 10° NNW
Meteor 1-22 Rocket 4.3 23:32:04 10° NNW 23:37:36 70° W 23:37:36 70° W
USA 238 DEB 4.4 23:39:28 39° E 23:39:28 39° E 23:44:29 10° NE
USA 238 4.5 23:39:36 38° E 23:39:36 38° E 23:44:34 10° NE
Nadezhda 4 Rocket 4.3 23:42:14 54° ENE 23:42:14 54° ENE 23:47:51 10° NNE
Cosmos 2263 4.4 23:41:41 10° NNW 23:46:42 66° NNE 23:46:42 66° NNE
